Wind_Speed
4 4 4 6 6 6 7 8 8 7 6 6 4 3 3 3 4 4 4 5 2 2 4 5 7 8 12 13 13 13 10 7 7 7 8 9 9 8 8 8 8 7 5 7 10 10 9 8 10 12 13 15 15 15 15 15 14 12 12 11 10 10 11 11 11 10 10 10 9 8 7 6 4 3 3 4 6 8 8 9 10 11 12 13 14 14
4 7 7 7 7 7 7 8 8 7 5 4 4 2 3 3 4 5 4 5 1 2 3 4 8 8 12 13 12 11 11 8 8 9 11 11 10 8 9 9 8 7 6 8 9 9 9 9 11 11 11 14 14 12 12 12 11 9 8 9 8 8 9 10 9 9 9 8 7 6 4 3 1 1 3 4 6 8 9 10 11 12 13 14 15 15
4 6 7 7 6 7 6 7 7 7 6 3 3 2 2 3 4 5 4 5 1 3 3 3 7 6 11 12 12 14 14 14 15 13 12 13 12 10 10 10 9 9 8 8 7 8 9 10 12 11 11 13 14 13 11 11 12 11 10 9 7 7 7 7 7 7 6 5 4 3 2 1 2 2 3 5 7 8 10 11 13 14 14 14 14 14
4 5 6 7 6 7 4 5 7 5 5 4 4 3 3 4 1 2 4 6 2 2 2 4 5 3 7 8 11 11 9 11 12 8 5 6 7 8 9 7 8 10 9 9 7 7 9 10 10 10 11 13 14 14 12 11 13 14 13 11 7 6 6 5 5 5 5 3 3 2 2 3 3 3 4 4 5 7 9 11 14 15 15 14 14 13
4 6 6 8 6 8 6 5 7 5 4 3 5 6 4 4 3 3 3 6 5 3 1 6 5 0 5 8 9 3 3 5 9 8 5 4 5 7 7 6 6 6 6 8 9 7 8 10 9 10 12 13 14 14 12 12 13 13 13 13 9 5 5 5 4 4 4 3 3 3 2 2 3 4 6 6 7 10 11 13 14 15 15 14 13 12
6 5 6 9 6 7 7 6 7 7 4 3 5 9 7 5 4 3 4 5 6 5 2 5 4 3 4 9 11 5 4 5 5 7 10 9 10 10 7 6 7 5 4 6 7 8 9 11 11 11 12 13 13 13 12 13 13 11 11 11 9 6 5 5 4 4 4 3 2 2 3 4 6 8 9 10 11 12 13 13 14 14 14 13 12 12
5 5 6 9 7 7 7 6 6 7 6 3 5 8 8 7 4 3 3 2 1 4 4 3 5 2 4 7 10 10 11 8 5 7 10 11 12 10 7 7 8 8 7 6 7 8 9 12 13 12 12 13 12 11 11 12 10 8 7 9 7 6 6 5 5 4 3 2 2 3 5 6 7 8 9 10 10 11 11 11 12 13 12 12 13 14
6 8 6 8 8 7 7 5 5 8 7 4 4 7 9 7 5 5 4 3 3 4 5 1 5 4 2 6 7 10 13 11 9 9 10 12 12 9 8 8 8 9 9 8 8 8 9 12 13 13 13 14 13 12 12 12 10 8 9 10 7 6 5 4 4 2 1 2 2 3 3 3 4 5 6 7 7 8 9 9 10 11 11 13 15 16
6 10 8 8 7 6 6 5 7 9 5 5 4 8 8 8 7 6 6 5 2 2 6 4 3 4 3 4 2 8 13 13 13 13 12 14 14 11 10 10 9 9 8 7 7 8 9 11 13 15 16 17 17 15 15 15 12 10 11 12 9 6 5 4 3 2 1 2 2 2 2 2 2 3 4 5 5 6 7 8 10 11 13 14 15 16
4 9 9 8 6 6 6 5 8 10 5 5 5 4 2 4 3 3 4 3 1 1 6 7 4 4 3 2 4 8 12 14 12 12 13 12 12 10 10 11 9 8 6 5 6 8 12 15 15 17 19 18 18 17 16 16 14 13 15 14 12 10 9 8 7 6 6 5 4 3 3 2 2 3 3 3 5 6 7 9 11 12 14 15 15 15
3 4 7 7 5 5 6 5 7 10 7 3 4 1 1 2 3 2 1 2 2 2 8 8 7 6 2 3 6 7 10 14 11 9 9 8 9 9 9 10 9 7 7 7 8 8 13 18 18 18 19 18 19 19 19 19 18 18 18 17 16 13 12 11 9 8 8 6 5 4 3 2 3 3 3 5 6 7 8 10 11 13 14 15 16 17
4 3 4 4 5 5 6 5 5 7 6 3 3 3 1 3 4 3 3 2 2 5 8 6 6 7 5 4 7 5 5 13 14 13 14 13 11 10 8 9 8 7 8 9 9 8 12 16 17 19 20 19 21 22 22 22 21 21 19 17 16 14 11 10 8 7 7 5 4 3 2 2 2 3 4 5 6 6 7 8 11 12 14 16 17 18
6 4 2 2 6 8 6 4 4 3 4 5 3 4 3 1 1 2 3 1 4 6 6 3 3 5 4 4 6 7 7 12 14 12 16 17 14 12 9 9 9 8 9 9 9 9 9 11 13 17 19 19 22 23 23 23 22 21 19 16 15 13 10 9 7 6 5 3 3 2 2 2 2 2 3 4 4 5 6 8 10 13 14 17 18 20
4 4 3 4 5 7 9 6 5 4 5 7 6 5 5 3 3 4 3 1 3 4 3 2 2 3 2 2 2 5 6 9 8 5 9 11 12 12 9 9 8 8 9 8 9 9 8 11 13 15 17 18 21 24 24 23 22 20 18 15 14 13 10 8 7 5 4 2 2 2 1 1 1 2 3 3 4 5 6 7 9 12 14 15 18 19
6 5 6 8 4 6 11 9 8 5 5 6 5 6 5 4 5 4 4 3 3 4 2 4 1 2 2 1 2 3 3 5 8 7 9 10 10 9 8 8 9 9 9 7 8 9 9 14 17 16 17 19 21 23 23 23 21 19 17 15 14 13 10 8 7 5 4 3 2 1 1 1 1 2 3 4 4 5 6 8 10 12 14 15 17 18
8 7 6 7 6 8 10 9 7 6 4 4 4 6 4 5 5 1 2 6 4 2 1 2 0 2 2 1 2 3 7 10 11 10 12 12 10 9 7 8 8 8 7 7 9 8 9 15 18 17 19 20 22 22 20 21 21 19 18 16 15 13 11 9 7 6 4 2 1 1 1 2 3 4 4 4 5 6 8 10 12 13 15 16 18 19
6 5 5 4 7 8 10 9 9 7 5 3 4 5 5 5 6 3 1 1 3 3 1 1 1 1 1 2 3 8 11 11 12 13 13 10 10 10 7 7 8 7 7 7 9 8 8 14 16 16 19 21 21 21 20 20 20 19 18 16 15 13 10 9 7 5 3 2 3 4 5 6 6 7 7 7 7 8 10 12 13 14 15 16 18 19
5 3 5 5 8 10 8 8 9 9 8 5 5 6 3 3 3 3 2 1 4 2 2 1 2 2 2 1 2 10 12 11 13 13 12 9 9 9 7 7 8 7 6 7 9 8 8 13 14 14 18 20 20 19 18 18 18 18 17 15 14 12 10 9 7 6 6 6 7 8 9 9 9 9 9 9 8 8 10 13 14 13 14 16 18 18
3 1 6 5 9 8 5 5 6 6 5 4 6 7 5 4 2 1 3 2 2 2 2 1 2 2 2 2 5 11 12 12 13 13 11 9 9 9 8 9 10 9 7 7 8 7 7 12 13 14 17 18 18 17 16 17 18 19 17 14 11 10 10 10 9 9 9 9 10 10 10 10 9 8 7 7 7 8 10 12 12 12 13 15 17 18
2 2 4 4 7 6 4 4 5 6 1 3 6 6 3 4 4 3 3 3 4 3 1 2 2 3 2 4 8 13 12 11 13 12 10 9 10 9 8 9 10 9 7 6 7 7 7 11 14 15 16 16 16 16 17 19 19 18 15 12 11 12 12 12 11 10 10 10 10 10 9 9 8 7 6 7 8 9 10 11 10 11 13 14 15 18
1 2 2 4 1 4 4 4 7 7 4 4 5 5 3 2 2 2 1 2 5 4 3 3 2 4 3 3 8 13 12 12 14 14 11 9 10 10 9 9 9 8 8 7 8 7 8 12 14 15 16 16 16 17 19 20 19 17 15 14 14 14 14 12 10 9 9 9 10 10 9 9 9 8 7 7 8 9 10 10 10 11 13 13 15 18
1 2 2 2 0 4 5 4 7 10 8 7 6 5 5 4 4 3 2 1 3 4 4 4 3 5 4 2 5 10 11 11 13 13 11 10 12 11 10 10 10 9 9 8 8 7 9 12 13 15 16 17 17 19 21 21 18 17 17 15 14 14 13 12 10 9 9 9 10 11 11 11 10 9 9 8 9 9 9 9 11 12 13 14 16 17
3 3 2 2 3 5 6 3 7 11 9 7 5 4 4 5 5 6 5 3 2 3 2 3 1 5 4 2 3 6 8 8 10 11 10 10 11 12 11 10 10 10 9 9 8 8 10 12 14 15 17 18 18 20 20 18 17 17 17 16 15 15 14 12 11 11 12 12 13 13 12 12 11 11 11 11 11 10 9 11 13 13 14 16 16 15
2 2 1 2 3 3 5 4 2 5 6 4 2 3 5 4 4 6 5 4 4 3 2 3 0 4 3 1 2 6 8 8 9 11 12 10 9 11 12 10 10 10 9 9 7 8 11 13 14 14 16 18 19 18 16 16 17 19 19 17 16 15 14 14 13 12 12 13 14 14 13 12 12 13 14 15 15 13 13 14 15 15 15 16 16 15
3 2 2 1 1 3 3 1 2 2 3 3 2 3 5 5 6 4 3 3 2 3 5 5 3 5 2 3 5 8 10 9 8 9 11 11 9 10 11 10 9 9 9 8 8 8 10 11 12 12 14 17 17 15 15 18 20 20 19 17 17 16 16 15 13 13 14 15 15 14 14 13 13 14 15 16 16 15 16 16 16 16 16 16 17 17
4 3 3 3 3 2 4 5 3 4 3 1 3 5 5 7 9 5 3 4 1 3 4 5 4 3 3 7 9 10 11 10 9 9 10 11 10 9 9 9 9 9 9 9 9 9 8 9 10 12 14 15 15 15 18 20 21 21 20 18 18 18 17 16 15 15 16 16 16 16 15 14 15 14 15 16 16 16 16 17 17 17 17 18 18 18
3 2 4 5 6 6 6 7 5 4 4 1 3 5 4 6 9 6 5 3 4 4 3 3 5 6 7 9 10 11 12 11 10 10 10 11 11 10 9 8 8 8 8 8 8 8 8 8 9 12 14 14 15 18 20 21 21 21 20 19 18 17 17 16 16 17 17 16 16 16 15 15 15 16 16 17 18 18 17 17 17 17 18 19 20 21
4 3 5 5 4 4 4 6 4 5 5 3 3 3 2 5 8 8 5 5 6 6 2 5 7 10 10 10 11 13 14 13 12 12 11 11 11 10 9 8 8 7 7 7 8 8 8 7 7 10 14 16 18 19 19 20 20 20 19 18 18 17 17 16 17 17 17 17 17 16 16 16 16 16 17 17 18 18 17 17 17 18 18 19 21 23
5 4 4 3 2 4 5 1 5 9 5 3 5 3 2 3 7 9 6 6 8 7 5 7 11 12 10 13 15 15 14 14 13 11 10 11 11 10 10 10 9 9 8 8 8 7 8 7 7 9 15 18 19 19 19 20 20 20 19 18 18 18 17 17 17 17 18 18 18 18 17 17 17 17 17 17 18 18 18 18 18 19 19 21 22 23
4 3 3 5 4 6 7 5 6 10 6 5 5 3 4 3 4 5 4 5 7 5 5 10 11 6 3 8 12 10 10 10 11 11 10 11 12 11 11 11 10 10 9 9 9 7 7 7 8 13 17 18 18 18 19 20 20 20 19 18 18 18 17 17 18 17 18 18 18 19 18 18 17 17 17 18 19 19 19 20 20 21 22 23 24 24
2 3 2 6 4 4 6 6 6 9 8 7 6 5 5 5 5 5 3 4 6 4 5 11 9 1 2 4 8 9 10 11 12 13 12 12 13 13 12 11 11 10 9 9 8 7 6 6 10 15 17 17 18 18 20 21 21 21 19 18 19 18 17 16 17 17 17 17 18 18 19 18 17 18 18 19 20 21 22 22 23 24 25 26 26 27
4 1 1 6 4 2 3 3 4 7 10 8 6 6 4 4 3 2 0 2 4 8 10 10 6 4 4 8 9 9 11 13 14 14 13 11 12 14 13 12 11 10 9 7 7 7 6 6 11 15 17 18 19 20 21 23 22 21 20 19 19 19 18 17 17 18 18 18 18 19 19 19 19 20 20 21 22 23 23 24 25 26 27 28 28 29
5 5 2 4 4 3 4 2 1 4 7 3 2 1 0 1 2 2 1 1 5 11 11 6 5 6 9 12 12 11 13 14 14 13 12 11 11 11 12 12 11 9 8 7 6 5 6 9 14 18 19 19 20 20 22 23 23 21 20 20 20 19 19 18 18 18 18 18 19 19 18 18 20 21 22 22 23 24 25 26 27 28 28 28 29 30
5 8 4 2 4 4 5 4 2 1 2 4 5 4 4 2 2 3 2 1 4 6 4 2 5 11 12 13 15 16 15 15 13 12 11 12 11 10 9 9 9 8 7 7 6 6 9 14 18 20 21 21 21 22 23 23 23 22 21 21 20 20 19 18 18 18 18 18 19 18 18 18 20 20 21 22 23 25 26 28 28 28 28 29 30 31
6 7 3 1 4 3 2 3 2 5 6 5 5 3 4 5 5 5 3 1 1 3 3 5 9 14 13 10 10 10 11 12 14 13 12 12 11 12 11 9 8 8 7 7 7 9 14 19 21 21 22 22 23 24 24 24 23 22 21 21 20 19 18 18 18 18 18 18 18 18 18 19 20 20 20 22 24 26 27 27 27 27 28 29 31 31
7 6 3 2 3 2 2 3 4 6 4 3 4 2 3 4 3 4 4 2 3 1 5 8 9 11 10 10 9 8 9 10 10 8 9 9 9 11 11 10 8 8 7 8 11 15 20 24 24 24 23 23 25 25 24 24 24 23 22 21 20 18 18 18 19 19 19 19 19 19 19 20 21 21 21 22 24 25 26 26 26 26 28 30 31 31
7 5 4 3 1 3 4 2 1 2 3 3 2 2 4 5 5 5 4 3 5 2 5 10 11 10 11 12 11 11 11 10 7 3 4 7 8 8 9 9 10 10 10 13 18 22 26 28 28 27 26 24 24 24 25 24 24 24 23 21 20 19 19 20 21 20 20 21 21 21 21 22 23 23 22 22 24 24 24 25 26 26 28 30 32 32
6 4 5 4 1 2 4 2 2 2 2 5 5 5 2 4 5 6 4 2 5 3 7 12 14 13 14 15 14 13 12 9 5 4 5 7 9 10 10 11 14 16 17 19 23 25 27 28 28 28 28 26 24 24 25 25 25 25 24 21 20 20 21 22 21 21 22 22 22 22 22 22 23 23 23 24 24 25 25 26 27 28 29 31 32 31
8 4 4 6 3 2 4 3 2 3 4 5 6 5 2 4 5 5 4 3 5 7 10 13 16 15 16 17 17 16 12 8 7 6 6 8 11 13 12 11 15 20 22 25 27 27 27 29 29 28 28 27 25 24 25 26 27 26 24 22 22 22 21 21 21 21 21 21 20 20 20 20 21 22 23 24 24 25 26 27 28 28 30 31 31 31
7 4 4 5 3 2 4 2 2 3 3 3 5 5 4 4 5 7 1 6 7 11 12 15 18 17 16 17 16 14 11 9 8 8 8 11 12 14 15 14 16 20 23 25 28 29 29 30 31 28 26 27 26 26 27 28 28 26 24 23 22 21 20 20 20 20 20 20 19 19 19 19 20 21 22 23 24 26 27 27 28 29 29 29 30 30
4 3 3 4 3 3 4 2 2 3 4 4 5 5 4 3 5 5 4 6 7 11 12 14 17 16 15 16 14 9 6 5 8 10 11 12 12 11 14 17 20 23 25 26 28 30 29 29 30 28 26 27 28 28 28 29 28 25 24 23 22 20 20 21 21 21 21 21 21 21 21 21 21 21 22 23 25 26 27 27 28 28 28 29 29 29
1 2 2 3 4 3 3 2 0 4 4 4 4 2 2 4 2 4 6 3 7 11 11 12 15 15 14 13 9 7 8 12 14 13 11 13 12 10 12 17 20 21 24 27 28 30 29 27 27 28 27 27 29 29 29 30 28 25 24 23 21 20 21 22 22 22 22 23 22 22 22 21 21 22 22 23 25 27 27 27 27 28 28 28 29 29
3 3 1 2 3 2 2 2 1 3 5 6 6 2 1 3 4 5 1 2 5 9 9 10 12 13 12 9 8 11 14 16 15 13 11 12 13 13 14 19 21 20 22 25 25 28 30 28 26 27 27 27 29 29 30 30 28 25 24 23 21 21 22 23 23 23 23 23 23 22 21 21 21 21 22 23 25 27 27 27 27 27 28 28 29 30
1 3 2 3 2 3 2 2 3 4 5 3 4 4 4 4 4 4 3 4 5 6 7 7 7 8 10 10 11 14 16 17 16 14 13 12 12 13 14 19 22 22 23 25 25 28 31 29 26 26 27 28 29 29 29 30 29 26 25 23 23 24 25 24 24 24 24 23 23 22 22 21 21 22 22 24 25 27 27 27 27 28 28 28 30 30
2 2 4 3 2 3 4 5 4 3 3 2 0 1 2 1 1 2 4 5 5 6 6 6 6 7 10 11 12 13 14 16 16 15 13 12 12 13 15 18 22 24 24 26 28 29 31 31 29 28 27 26 28 28 28 30 31 29 26 26 26 28 28 27 27 27 26 25 24 23 23 23 24 24 24 25 26 27 27 27 28 28 28 28 29 29
2 1 2 2 2 1 1 1 1 2 3 3 3 2 2 3 3 4 5 4 4 5 6 8 8 9 11 13 13 12 12 15 16 14 13 13 12 14 17 19 21 25 26 26 27 29 31 31 30 29 27 25 26 28 28 30 31 31 30 29 30 31 31 31 31 30 29 28 27 26 26 26 26 26 25 25 26 27 27 28 29 29 28 28 28 27
2 1 2 3 3 1 1 2 2 3 2 3 4 4 4 5 3 3 5 5 4 5 7 8 10 11 11 12 15 14 13 15 16 13 12 12 12 13 17 19 20 24 27 27 27 29 31 29 28 28 27 26 26 28 30 30 30 32 33 33 33 33 34 34 34 33 32 31 30 29 29 29 28 27 26 26 26 27 28 29 29 29 28 27 27 26
1 2 2 2 3 2 1 0 3 3 3 4 4 3 3 4 5 5 5 6 7 8 8 7 10 11 10 11 14 17 15 15 16 15 12 11 10 12 17 20 21 24 26 27 29 31 30 29 28 28 27 27 27 29 31 31 31 33 34 34 34 35 35 35 35 34 33 32 32 31 31 30 30 29 28 27 27 28 28 28 28 28 27 26 25 25
1 1 1 2 3 2 1 2 3 3 4 5 4 3 3 4 5 7 7 7 9 10 10 8 7 8 11 13 14 16 17 14 14 15 14 11 10 13 17 20 22 24 26 27 28 30 30 30 30 29 28 28 28 30 32 32 33 34 34 34 34 35 35 35 34 34 33 32 32 31 31 31 31 31 31 30 29 29 28 27 27 27 27 25 25 24
1 1 2 3 3 2 3 4 4 3 2 1 1 3 3 3 6 9 8 7 9 10 11 11 8 6 10 14 15 16 16 13 13 14 14 12 14 17 20 22 23 24 25 26 26 28 30 30 30 31 29 29 30 32 33 33 33 33 33 34 33 34 35 35 34 33 32 31 31 30 30 30 30 30 31 31 30 29 28 26 27 27 27 26 25 24
2 3 4 4 3 3 4 5 4 4 3 1 2 4 3 3 7 9 7 7 8 9 11 13 12 10 8 9 13 16 16 13 15 16 13 12 18 23 24 24 25 24 25 26 27 27 28 29 30 30 30 30 32 33 33 33 34 33 32 32 32 33 34 34 33 32 30 30 30 29 29 29 29 29 29 29 28 29 28 27 26 25 25 25 24 23
Wind_Direction
148 167 204 200 198 187 186 182 187 188 164 159 150 163 193 196 262 256 258 294 65 117 231 178 144 157 169 170 171 165 152 168 180 156 151 155 158 162 159 159 155 146 126 113 117 123 128 138 151 159 159 157 157 159 168 179 180 180 187 198 207 214 218 218 220 224 227 233 240 250 259 262 276 299 317 318 309 302 301 303 304 307 312 311 309 308
152 194 215 200 187 181 183 189 189 180 168 165 155 197 262 210 246 257 250 292 52 141 258 153 129 163 178 175 173 153 138 165 194 186 172 162 162 165 161 158 147 133 129 124 118 118 124 135 142 144 152 154 152 157 168 170 169 175 185 193 203 215 220 221 225 228 229 235 242 255 264 267 291 329 337 330 318 314 314 314 317 322 323 319 317 314
191 219 214 195 176 161 179 194 185 180 175 167 145 156 275 242 263 282 281 320 72 152 268 168 137 182 191 177 171 162 163 179 186 184 174 162 165 169 166 159 147 143 145 139 126 124 130 134 138 140 147 153 154 160 166 160 161 167 171 178 193 205 213 217 222 228 234 239 239 242 258 332 355 340 334 331 326 327 328 326 327 333 334 330 329 324
194 242 209 180 155 148 183 203 175 182 190 167 141 155 243 238 248 286 295 339 358 185 227 150 118 182 194 176 177 173 171 178 170 155 141 154 164 161 155 148 150 155 150 142 134 131 134 134 139 138 136 145 151 155 159 157 160 166 165 166 178 190 197 204 211 219 224 233 245 256 291 332 349 357 353 349 348 344 336 329 329 335 339 339 339 337
218 251 185 156 157 164 187 205 168 170 214 207 175 189 221 210 192 226 285 336 339 331 120 109 76 144 180 175 184 149 63 167 147 124 147 162 126 129 136 138 154 153 144 144 141 141 140 135 134 126 128 139 143 146 153 156 158 164 161 154 156 170 177 185 197 209 223 250 281 290 304 351 7 1 355 351 349 346 341 335 332 334 338 339 340 340
234 249 156 153 174 175 186 207 181 169 195 243 222 209 196 168 192 267 330 358 4 332 293 119 104 272 224 184 179 140 116 170 153 151 174 160 135 145 155 156 156 142 139 142 138 149 141 125 122 121 127 133 133 140 153 156 154 157 153 141 143 165 176 185 200 208 225 255 302 322 328 345 344 339 347 356 355 351 347 343 338 335 336 337 340 341
216 211 155 168 178 176 195 218 201 167 159 237 242 202 171 149 179 260 304 10 52 271 277 150 156 248 281 207 183 157 150 160 176 178 170 150 145 157 163 160 159 155 154 146 146 157 140 124 127 126 126 129 132 139 148 148 141 140 134 123 142 187 195 199 203 204 227 280 328 336 335 337 335 330 340 353 355 352 345 343 341 337 334 335 337 336
184 184 177 180 174 180 203 216 196 156 143 226 221 153 151 161 195 230 227 209 217 262 305 288 152 127 220 225 196 160 151 151 173 181 163 152 152 157 165 162 159 161 160 156 159 157 137 134 137 131 127 132 135 133 133 132 126 134 132 119 136 180 187 189 194 205 273 350 356 1 9 4 351 334 330 337 343 343 335 334 338 337 335 335 333 331
178 187 191 177 178 196 200 183 169 151 156 221 169 130 151 174 194 212 214 225 237 300 298 287 136 129 243 255 170 158 159 158 169 174 164 161 162 163 165 159 154 160 159 154 152 142 138 140 137 132 128 131 133 129 127 129 128 132 128 118 125 146 145 141 147 148 104 79 74 74 80 62 25 358 339 335 336 338 335 331 330 331 332 331 328 327
199 187 182 171 188 201 189 174 157 157 192 210 148 111 112 142 174 197 196 213 120 128 256 255 168 156 260 255 163 169 172 169 171 172 166 163 164 160 155 152 150 152 146 132 128 133 137 137 134 129 127 129 132 128 125 125 124 118 114 115 119 118 115 112 112 113 108 104 111 111 97 70 36 16 356 341 338 341 339 333 331 331 330 327 325 326
262 171 171 177 193 184 175 179 164 173 192 163 120 121 331 17 24 28 125 120 107 238 253 238 191 172 226 228 188 185 182 175 167 163 161 160 160 156 150 149 147 145 139 127 121 120 124 129 134 132 128 131 132 127 123 121 121 117 112 115 114 108 108 106 103 105 104 102 100 88 65 37 15 2 343 334 338 336 327 330 337 334 328 326 326 326
264 195 180 167 163 158 161 183 192 189 183 138 114 135 196 314 354 3 352 69 157 250 261 238 183 170 198 222 200 202 196 179 172 166 167 170 167 158 149 146 147 143 132 128 128 122 119 126 134 132 129 130 127 123 121 119 119 118 117 117 112 104 103 100 96 96 91 85 75 50 23 17 7 355 346 345 348 341 331 336 340 335 330 328 327 327
235 232 234 155 172 173 156 169 214 212 164 156 161 132 140 257 297 245 263 203 208 243 263 245 159 171 219 242 205 193 191 186 185 178 173 172 161 152 149 146 145 137 130 133 132 128 125 123 126 126 125 126 121 118 117 117 117 119 121 122 113 100 95 95 92 87 78 67 51 25 7 7 359 355 359 4 1 356 350 344 341 342 341 336 333 332
227 281 262 188 196 182 162 166 198 211 173 169 176 161 163 164 162 214 231 240 250 240 281 295 205 214 259 296 221 206 204 185 169 149 159 157 143 142 145 139 137 132 131 134 131 130 131 123 121 121 120 120 119 119 120 119 118 118 116 117 112 100 96 97 92 86 76 64 49 36 27 2 348 6 21 26 20 10 358 348 349 353 350 344 339 338
191 250 232 195 203 177 176 190 183 159 154 172 158 137 160 172 161 204 208 184 236 235 315 340 234 194 201 298 291 243 202 131 111 102 122 129 128 134 132 129 132 128 127 133 128 127 127 123 122 122 120 118 117 119 121 121 120 118 115 114 113 109 108 106 99 95 86 73 57 47 64 45 43 58 64 58 40 23 8 1 1 358 353 351 349 348
187 232 243 205 204 174 178 194 167 134 151 183 132 129 184 195 153 111 186 174 184 199 328 351 275 209 179 351 352 142 124 106 106 112 122 129 130 131 128 129 127 121 129 134 121 118 124 123 122 124 122 117 114 115 116 119 123 124 122 119 116 114 115 110 102 95 83 66 55 71 96 87 79 77 71 62 47 34 25 16 9 5 5 5 4 2
180 242 276 198 206 198 182 183 173 164 176 170 145 170 197 167 132 105 211 153 90 136 257 335 234 252 153 33 53 124 122 113 119 125 130 133 130 130 129 126 121 117 126 124 115 121 126 119 119 124 121 116 116 115 113 116 123 125 123 119 116 113 111 105 100 96 92 102 107 98 96 90 85 81 70 62 52 41 32 22 15 16 20 18 13 8
163 244 275 178 199 221 188 174 190 179 153 144 182 193 161 120 118 109 153 9 56 142 285 336 168 186 171 229 125 133 134 134 137 138 138 135 130 130 124 117 116 112 115 112 111 116 113 112 116 119 117 118 119 117 116 119 123 123 119 115 113 110 107 105 106 110 110 110 105 96 94 95 92 84 72 62 52 38 32 29 23 21 25 25 19 12
148 234 272 191 188 212 165 146 209 205 159 143 177 177 142 160 211 102 157 179 114 160 290 4 179 206 198 205 162 151 152 148 144 143 143 140 136 131 121 120 117 111 114 113 109 110 104 110 114 113 115 119 119 118 119 121 122 120 115 112 110 107 109 114 117 115 108 102 96 88 86 88 84 75 59 47 42 33 29 28 19 15 26 29 20 12
122 125 273 234 187 177 138 140 204 217 193 93 142 168 152 157 178 162 163 161 136 159 206 151 194 241 235 211 177 166 162 152 146 147 147 141 135 132 129 127 122 119 122 116 110 112 109 111 114 117 122 123 120 119 120 119 118 115 112 114 115 113 115 118 117 110 101 94 92 88 80 72 67 63 52 42 40 34 32 28 16 18 30 29 18 14
73 144 256 283 202 151 175 204 191 183 164 123 146 178 175 114 131 145 143 117 124 140 157 147 209 250 242 212 178 168 165 159 154 148 142 135 130 130 129 126 123 122 122 117 115 116 114 115 120 126 125 120 117 118 121 122 120 117 116 116 117 117 117 114 108 101 96 90 85 81 72 60 52 51 52 50 47 41 35 31 30 35 38 34 27 23
152 166 200 288 171 178 219 220 174 174 171 159 166 184 177 139 117 133 208 256 108 126 159 155 195 254 259 228 177 170 166 162 152 140 132 132 130 127 126 125 125 124 121 120 120 119 122 127 132 131 123 117 116 120 125 128 127 123 119 117 118 118 114 110 105 101 98 91 80 72 64 56 49 46 47 53 55 49 39 38 47 51 47 43 37 29
149 132 161 247 224 208 241 261 180 180 165 143 161 177 156 136 127 141 191 226 110 103 132 119 146 263 270 269 193 163 149 142 138 130 123 126 128 126 125 125 125 124 125 127 125 126 133 138 139 131 120 116 121 127 133 134 129 123 119 120 121 116 110 109 106 100 93 84 77 71 64 58 57 58 61 65 65 62 56 56 59 57 52 50 45 38
164 138 121 274 284 288 301 325 166 167 136 122 168 157 145 157 149 145 171 182 133 134 140 102 186 266 262 248 147 125 120 122 130 130 125 124 126 127 128 129 128 126 128 128 124 128 135 138 139 133 122 120 127 133 134 128 124 121 121 121 118 113 111 108 101 93 86 80 75 71 69 67 68 71 72 72 72 71 67 65 65 63 60 58 53 48
200 184 99 109 2 350 323 33 97 156 171 173 186 168 157 134 112 115 137 107 110 189 164 138 203 260 245 131 121 120 120 121 127 132 129 129 131 132 132 131 130 129 129 130 129 132 136 139 141 134 126 128 133 132 124 121 122 121 118 117 114 112 108 101 95 90 85 80 77 76 75 74 74 74 75 75 74 73 70 69 69 67 64 61 59 57
184 180 124 140 148 159 195 192 184 185 194 198 147 160 167 136 128 139 120 96 132 214 148 144 197 231 148 133 133 134 133 130 133 134 131 131 132 135 136 133 134 136 136 138 137 135 136 137 136 130 129 134 134 126 121 121 119 116 113 112 110 107 101 96 93 89 83 78 77 77 75 73 72 74 76 79 78 76 74 71 71 70 67 63 63 63
140 165 153 151 167 181 192 219 225 165 143 159 137 145 175 160 140 120 105 138 177 161 157 199 179 151 152 155 150 150 148 143 144 143 139 137 136 139 138 134 134 136 137 138 134 134 135 135 137 136 133 130 125 122 122 119 115 114 113 109 106 104 100 97 92 86 81 78 76 73 72 72 75 77 79 82 82 79 76 73 71 70 69 68 66 65
113 183 188 153 173 218 217 225 209 127 122 147 125 119 156 152 137 128 149 189 155 133 217 232 165 157 172 172 163 162 159 155 154 153 148 142 139 138 133 129 129 130 133 132 132 137 138 137 143 135 122 117 120 122 120 116 114 114 112 108 107 104 102 99 92 85 81 78 75 73 72 75 79 81 81 83 83 78 74 73 72 71 72 71 68 66
128 182 193 123 47 340 328 294 112 103 104 94 93 93 61 118 153 154 173 183 146 147 211 196 170 175 181 178 175 170 163 157 150 146 140 135 134 133 132 134 137 140 140 137 137 141 142 147 148 124 114 118 123 121 117 114 114 113 111 109 105 102 100 98 91 86 83 80 77 77 77 78 80 82 82 81 79 77 75 75 73 73 73 70 67 66
146 177 162 108 62 2 340 339 75 100 105 67 55 42 44 71 135 128 137 156 132 137 176 162 164 191 202 179 172 155 140 136 132 131 134 136 138 138 141 145 146 149 149 147 146 145 150 155 138 121 121 126 125 121 116 113 112 113 112 108 105 102 100 97 91 87 85 82 79 80 81 81 81 82 83 80 79 78 76 76 75 73 71 69 66 65
151 192 148 100 77 348 337 352 45 86 97 75 42 22 46 66 64 61 89 122 95 82 127 135 141 238 321 135 133 126 128 131 136 142 143 144 145 144 147 152 153 154 155 152 147 146 155 149 126 125 130 130 126 124 119 114 112 113 111 107 106 104 103 100 94 90 88 85 84 83 83 83 83 84 84 82 81 80 78 77 76 74 72 69 67 65
116 136 64 91 100 285 317 5 38 77 85 73 37 14 27 61 68 48 61 158 135 123 118 120 145 201 175 133 126 132 140 141 146 149 146 150 153 150 152 158 158 155 154 152 147 151 158 140 126 131 134 130 129 127 121 117 115 111 109 107 106 105 105 103 97 93 90 88 86 84 83 82 82 82 82 82 82 81 79 79 77 74 72 70 68 67
124 127 124 111 132 234 280 323 339 71 80 63 322 331 65 64 99 93 21 211 152 134 132 155 188 171 149 139 138 144 150 154 157 155 150 150 150 150 155 158 156 154 152 150 148 147 141 131 131 134 133 131 130 126 121 120 116 111 111 110 108 107 106 104 100 96 92 90 89 87 84 82 80 79 80 81 82 81 80 79 77 74 73 71 70 70
123 127 142 138 140 224 284 347 14 62 166 236 244 186 170 192 172 147 116 160 146 132 147 168 138 141 150 156 158 160 163 162 155 149 148 148 150 154 158 157 151 146 142 138 134 125 119 122 127 129 130 129 128 124 121 118 114 113 114 111 109 108 107 106 103 99 96 96 95 92 89 86 83 81 81 82 83 82 81 79 77 75 73 73 73 72
116 116 127 93 119 184 301 42 137 218 227 244 264 228 189 196 179 133 89 33 51 93 125 122 134 152 156 151 149 149 149 145 138 143 153 156 156 154 153 153 146 139 136 132 127 123 123 123 124 125 127 128 127 124 121 118 116 115 113 111 111 110 111 109 105 102 102 100 98 98 96 92 90 88 87 86 85 84 82 80 78 76 74 74 73 72
121 121 120 75 97 143 88 101 183 228 261 289 299 263 166 173 173 112 84 324 312 105 141 135 140 149 136 119 119 117 118 122 122 135 151 154 156 152 148 150 142 134 134 132 130 131 130 130 129 129 130 129 128 125 122 121 120 116 111 111 113 113 113 111 106 104 104 102 101 102 101 98 96 94 91 89 87 85 83 81 79 77 76 76 75 73
116 127 115 81 82 140 128 152 246 314 319 299 278 233 170 173 188 148 131 257 281 254 153 139 137 139 128 121 123 122 119 115 105 107 145 145 141 130 126 130 127 120 121 127 132 135 135 134 133 132 131 129 128 126 125 125 124 117 112 112 113 113 112 109 107 106 106 105 105 105 103 100 97 94 92 90 88 85 84 83 81 80 79 79 76 74
91 120 133 123 120 110 103 71 14 21 274 248 240 246 207 164 174 143 116 265 266 220 165 146 142 144 137 131 132 130 125 125 139 172 167 145 127 114 113 119 119 117 120 125 129 131 132 132 131 132 131 128 124 125 128 129 126 119 114 114 115 114 112 109 109 110 110 110 109 107 104 101 97 93 91 90 89 88 87 86 84 82 82 81 78 75
57 60 96 104 103 109 108 114 158 188 233 237 236 256 237 162 159 115 75 283 233 187 166 152 149 153 150 145 144 143 145 159 176 180 163 142 133 128 129 125 120 122 126 130 131 131 131 131 130 130 129 126 124 127 130 129 126 122 118 117 117 116 113 112 114 116 115 114 113 112 108 104 100 96 94 93 92 92 90 89 88 86 85 83 80 78
42 26 56 93 119 137 114 119 201 217 235 232 235 250 220 168 116 91 85 259 213 177 170 160 156 158 157 152 151 155 167 176 172 161 149 140 136 136 136 134 130 128 128 130 132 133 132 131 130 129 128 127 129 132 131 129 126 122 120 120 120 118 116 118 119 119 118 117 116 114 112 109 106 102 99 99 97 96 94 93 91 89 87 85 82 79
31 26 66 114 132 126 119 126 245 256 248 228 229 231 200 132 79 105 206 237 189 169 172 163 156 157 160 160 159 164 163 124 119 130 135 133 130 129 130 129 128 128 130 133 135 134 132 131 131 130 130 132 134 134 132 129 125 122 122 124 122 121 122 123 123 121 120 118 116 114 113 112 110 107 105 104 102 100 98 95 93 91 88 86 84 81
110 69 79 126 127 123 130 121 327 276 245 193 190 226 165 125 139 211 227 221 163 162 165 161 156 157 161 162 151 138 123 111 114 126 133 132 129 126 123 120 117 123 130 134 135 134 131 129 129 129 131 134 136 135 133 129 125 123 126 125 124 126 129 129 127 124 122 119 117 115 114 114 114 111 109 108 106 103 99 96 95 92 89 87 85 82
162 144 158 165 145 114 73 92 131 241 224 167 139 122 138 160 196 220 225 85 140 154 155 158 158 155 154 149 131 126 125 120 122 129 131 131 129 129 130 125 122 128 132 132 134 134 130 127 128 129 132 135 136 135 134 130 126 126 127 125 126 132 133 131 129 126 123 120 118 117 117 117 117 115 112 110 108 104 100 98 96 93 90 88 86 83
169 146 179 206 176 130 130 173 200 220 235 206 146 161 208 211 200 189 144 107 122 142 146 152 150 143 141 138 134 133 129 127 131 133 133 133 131 129 131 129 130 134 135 134 135 134 131 129 129 130 133 137 138 138 137 133 130 128 126 126 130 132 130 129 129 126 122 120 119 118 117 118 118 117 114 111 109 106 102 99 97 94 91 89 87 84
242 188 170 177 172 160 179 212 233 243 262 286 45 193 246 307 78 125 125 129 144 148 146 144 135 130 133 132 133 133 131 132 135 136 136 136 133 132 133 133 135 136 135 135 137 137 135 134 135 135 136 140 141 141 140 138 134 130 128 129 131 129 127 126 125 122 119 118 117 117 117 117 116 116 115 113 110 107 104 101 98 94 91 89 87 84
274 250 134 122 133 213 232 239 303 338 336 350 17 31 28 42 69 89 93 113 136 131 135 143 140 140 142 138 133 134 136 135 135 136 139 138 135 135 136 135 135 135 135 136 138 138 137 137 137 137 137 141 145 144 143 140 136 132 132 132 130 126 124 123 119 116 114 114 114 116 117 115 114 113 113 112 109 106 104 101 97 93 91 89 87 86
280 151 82 81 109 147 291 330 22 23 1 14 34 42 44 38 33 73 99 115 118 110 123 138 138 140 145 142 136 136 138 137 134 135 138 137 136 137 135 135 136 137 139 141 142 141 139 137 137 138 139 142 146 146 145 142 138 134 133 132 128 125 123 121 118 115 113 112 112 113 113 113 113 113 112 110 109 106 104 101 97 92 89 87 87 87
280 102 82 66 102 137 218 279 80 69 39 34 48 65 76 65 54 66 90 106 109 106 112 127 136 141 143 142 139 137 138 140 139 139 140 139 138 139 138 138 140 140 141 143 143 142 141 139 139 141 142 144 147 148 147 143 139 137 135 132 130 127 124 121 119 117 115 114 112 111 110 110 110 111 110 109 108 106 104 100 95 91 87 85 85 86
327 66 126 123 101 101 139 154 130 93 38 22 34 61 89 104 98 89 90 101 111 113 114 116 126 139 143 143 142 139 138 143 144 141 140 141 139 139 139 139 140 140 141 143 145 144 143 142 142 143 145 147 148 148 148 145 143 141 139 136 134 131 127 124 122 120 118 117 115 113 111 109 108 108 108 108 107 105 102 97 93 90 87 85 85 85
45 112 161 126 121 177 200 180 165 136 93 326 4 87 96 116 110 102 101 110 120 125 126 119 106 112 134 142 144 139 136 139 143 140 139 141 142 141 140 139 138 139 140 143 144 144 143 143 144 144 146 148 148 148 148 149 148 146 144 142 140 135 131 129 127 125 123 121 119 117 115 111 109 108 108 108 108 105 102 97 92 90 88 87 87 87
160 197 193 149 160 218 191 154 142 123 121 170 141 112 118 126 115 113 119 127 128 131 131 127 121 118 120 128 136 137 135 135 139 138 134 138 142 142 142 142 141 140 142 143 142 141 142 144 145 145 146 149 150 149 150 152 153 152 150 147 144 139 136 134 132 131 129 127 124 122 119 116 114 112 111 110 110 108 105 102 97 91 88 90 92 92
Height
749 757 761 760 762 762 762 762 761 763 765 764 767 769 769 770 767 759 753 748 746 752 755 756 761 768 769 766 763 766 772 777 778 776 774 775 777 777 778 780 781 784 785 786 787 788 789 790 791 791 792 794 796 797 799 801 802 802 804 806 807 808 810 811 812 813 814 816 817 819 819 819 818 817 816 815 815 814 814 815 815 814 814 814 814 813
750 758 761 757 758 758 759 758 758 762 764 765 768 769 770 771 766 758 754 750 747 753 756 755 763 770 768 764 762 765 774 781 782 779 776 775 777 777 778 780 782 784 785 786 787 789 791 791 792 793 793 794 795 797 800 802 802 803 805 807 809 810 811 811 812 813 814 816 817 818 819 818 817 816 815 815 814 814 814 814 814 813 813 813 812 812
757 759 756 754 756 756 757 758 759 762 764 766 769 770 772 769 764 758 753 751 749 753 756 755 763 770 766 763 762 764 769 772 772 772 772 773 776 777 778 780 782 784 784 786 788 790 791 792 793 794 795 795 795 798 801 802 802 804 806 808 810 811 811 812 812 813 815 816 817 818 818 817 816 815 815 815 814 813 813 813 812 812 812 811 811 810
763 758 752 752 755 756 758 760 761 763 764 767 769 772 772 767 766 763 757 754 750 751 754 755 763 770 768 766 764 763 764 766 767 770 773 773 775 777 778 780 782 783 784 786 788 790 792 793 794 795 795 796 796 798 801 802 803 805 806 807 809 811 811 812 813 814 815 816 817 817 816 815 815 815 815 814 814 813 812 812 812 811 811 810 810 809
758 751 747 751 754 755 757 759 763 765 766 768 768 768 769 766 766 765 761 757 752 752 753 757 771 777 774 773 771 769 771 771 771 776 779 775 775 779 781 783 784 784 786 787 788 790 792 794 796 796 796 796 798 800 802 803 804 806 806 805 808 811 812 812 813 814 815 816 816 816 815 815 814 814 815 814 814 813 812 811 811 811 810 810 809 809
754 747 745 751 754 755 756 759 761 763 766 769 765 762 764 764 764 764 763 763 765 765 755 757 778 786 779 774 772 774 777 778 778 781 781 776 776 781 784 786 786 787 788 788 789 790 792 795 796 797 797 797 798 800 802 803 804 805 806 805 807 811 813 814 814 815 816 816 816 815 815 814 814 814 814 814 813 812 811 810 810 810 810 809 809 808
749 745 745 749 753 755 757 758 758 759 766 770 761 756 760 761 763 764 765 769 774 771 757 754 772 786 787 779 771 772 776 781 785 783 779 777 778 781 784 786 786 788 789 790 791 791 792 795 797 798 798 798 799 800 802 803 804 805 806 806 808 812 814 815 815 815 816 816 816 815 815 814 814 814 814 814 814 812 811 811 810 810 809 809 808 807
743 744 747 749 751 756 759 759 756 755 764 767 756 754 759 760 762 764 766 772 772 767 761 756 763 777 787 782 772 771 776 783 787 783 779 778 778 781 784 785 786 788 789 790 791 792 793 795 797 798 799 800 800 801 802 803 804 806 807 807 809 814 815 815 815 815 815 815 816 816 816 816 815 815 815 814 814 813 812 811 811 810 810 809 808 807
737 743 747 749 753 756 755 753 752 753 758 758 750 750 753 754 758 759 765 771 769 771 771 762 762 775 786 783 775 775 778 781 783 780 778 777 778 781 783 785 787 788 789 790 791 792 794 797 798 799 801 801 802 802 803 804 805 807 807 806 810 814 815 815 814 815 815 816 816 817 817 816 816 816 815 815 814 813 813 812 811 811 810 809 808 806
735 737 740 746 751 751 748 746 748 751 754 751 747 748 750 752 756 758 765 769 770 778 776 764 762 773 787 788 781 781 780 778 779 777 776 777 778 780 782 784 786 788 789 790 791 793 795 797 800 801 802 803 803 803 804 805 807 809 807 807 811 815 815 815 815 815 816 817 818 818 817 817 816 816 815 815 814 814 813 813 812 811 809 808 807 805
734 732 734 739 742 741 741 744 746 747 748 747 749 752 754 757 757 760 766 767 774 782 771 761 760 765 782 790 781 777 774 770 775 777 778 779 780 781 782 784 786 788 789 791 793 795 796 798 802 803 804 805 805 805 806 807 808 808 808 810 814 816 816 816 817 817 818 819 819 819 818 818 817 816 816 815 815 814 814 813 812 811 809 807 806 804
735 736 735 731 731 734 738 744 745 745 746 749 752 757 762 766 764 767 770 770 781 783 763 757 761 761 773 783 776 769 766 765 769 772 774 777 778 781 781 783 786 787 789 791 794 796 797 800 803 804 804 806 806 805 806 807 808 809 811 814 816 817 818 818 818 819 819 819 819 819 819 818 818 817 816 816 815 815 814 814 812 811 809 807 805 804
740 738 734 729 727 730 738 748 750 748 750 754 757 762 772 778 779 779 778 778 782 775 761 761 762 762 771 777 771 765 762 763 765 765 767 771 775 779 781 783 785 787 789 792 794 797 799 800 804 805 804 806 806 806 807 808 810 812 814 815 816 817 818 819 819 820 820 820 820 820 820 819 818 818 817 816 816 815 814 814 812 810 808 806 804 803
748 741 734 733 730 726 733 747 753 752 754 756 759 765 775 781 786 788 786 787 781 767 765 766 759 764 776 776 770 766 762 762 764 766 768 772 775 778 781 783 785 788 789 792 794 796 799 801 804 806 806 806 806 807 809 811 812 814 814 815 816 818 819 820 820 820 820 821 820 821 820 819 818 818 817 817 816 815 814 813 811 809 807 806 805 803
753 750 737 733 731 725 728 736 740 744 750 753 753 759 768 770 773 779 778 778 772 763 767 770 765 771 778 773 769 767 765 764 767 770 773 776 779 780 783 785 787 789 791 793 794 796 798 801 804 806 807 807 807 808 810 812 813 814 815 816 817 818 820 820 820 820 821 821 821 821 820 819 818 817 817 816 815 815 814 812 811 809 807 806 805 803
748 746 729 723 724 721 726 728 728 737 748 751 749 755 763 757 755 767 771 768 764 761 770 778 778 777 774 769 768 767 766 768 770 774 776 779 780 782 785 787 788 790 793 794 795 797 800 800 803 805 806 807 807 809 811 812 813 814 815 817 817 819 820 820 820 821 821 822 821 821 820 819 818 817 816 816 815 814 813 812 810 809 808 806 805 803
744 741 725 721 723 719 721 723 723 732 743 749 751 754 753 745 746 760 770 774 769 765 777 789 785 778 775 772 769 767 768 770 773 776 778 780 781 784 787 788 790 792 794 795 796 800 802 801 804 806 805 807 808 810 812 812 814 814 815 816 817 819 820 820 820 821 821 822 821 821 820 819 818 817 816 815 815 814 812 811 810 809 808 807 805 804
737 737 724 721 725 719 715 719 721 722 730 743 750 747 744 746 749 753 762 773 774 772 784 791 783 777 780 779 772 770 771 772 774 777 779 782 783 786 789 790 792 795 796 797 799 802 803 803 806 807 807 808 810 811 812 813 814 814 815 816 817 819 819 820 821 821 822 822 821 821 819 818 818 816 816 815 814 813 812 811 810 809 808 806 805 804
730 735 725 717 721 718 713 722 729 724 722 729 734 733 738 751 757 755 760 768 773 783 794 791 784 781 780 777 772 770 771 770 773 777 779 783 785 787 791 792 794 797 799 800 802 804 805 806 807 808 809 810 811 812 812 813 814 814 815 817 817 819 819 820 821 821 822 822 821 820 819 818 817 816 815 814 814 813 812 811 810 809 807 806 805 804
726 734 730 718 714 715 717 727 736 733 726 725 728 730 734 742 747 750 757 759 764 788 802 793 789 786 773 769 768 766 767 768 770 775 778 782 785 788 791 793 795 798 801 803 803 805 807 807 809 810 811 812 812 813 813 813 814 815 816 817 818 819 820 821 822 821 822 822 820 819 818 817 817 816 815 814 814 813 812 811 810 809 807 806 805 804
725 732 733 724 716 719 724 725 728 731 730 730 734 738 738 738 740 745 754 756 757 779 797 794 793 784 765 761 763 762 765 767 768 773 778 782 786 789 791 793 796 799 801 803 804 806 808 809 811 812 813 813 813 814 814 814 815 816 817 818 818 819 820 821 821 821 822 821 819 818 817 817 817 816 815 814 814 813 813 812 811 809 808 806 805 804
725 730 733 730 725 724 721 714 715 718 721 724 729 735 737 736 741 749 759 760 755 764 780 783 780 774 764 760 760 760 763 766 768 773 779 784 786 789 792 793 796 799 801 803 804 806 809 811 813 813 813 814 814 814 815 815 816 816 817 818 819 820 820 821 822 822 821 820 818 817 817 817 817 816 815 814 814 814 813 812 811 809 808 807 806 805
719 726 731 730 726 722 715 710 711 710 711 716 719 727 734 732 734 745 753 756 756 763 774 775 769 765 765 764 759 759 764 767 772 775 780 785 787 790 793 795 797 799 800 803 805 807 810 812 813 813 813 814 814 815 816 817 817 817 817 818 819 820 821 821 822 821 820 819 818 817 817 817 817 816 816 815 814 814 814 813 812 810 809 808 807 806
717 726 732 731 724 718 712 710 711 709 711 718 719 723 729 726 725 732 739 744 753 762 767 769 770 766 765 764 761 762 767 771 774 777 781 787 789 791 794 796 798 800 801 804 806 808 811 812 813 813 813 814 815 816 817 817 818 817 818 819 820 821 821 821 821 820 819 819 818 818 818 818 818 818 816 816 815 815 815 814 813 811 810 809 808 807
720 728 732 735 734 729 725 722 720 717 715 716 719 721 721 720 724 730 736 740 748 758 757 755 765 770 766 764 765 767 771 775 778 779 781 785 790 792 794 796 798 800 802 805 807 809 810 811 813 813 813 814 816 818 818 818 818 818 819 820 820 821 821 820 820 820 819 819 819 819 819 819 819 819 818 817 817 816 816 815 814 813 812 811 810 809
719 727 730 735 742 743 740 734 729 725 720 717 719 720 719 720 723 728 737 740 747 759 758 749 758 770 768 766 769 771 774 777 780 782 783 785 789 792 794 796 798 800 803 805 807 808 810 811 812 812 813 815 817 819 819 819 819 819 820 821 821 821 821 820 821 820 820 821 821 821 821 821 820 820 819 818 818 818 817 816 816 814 813 813 811 810
716 724 725 727 730 731 730 727 723 720 719 720 720 721 720 719 719 725 736 740 743 754 757 752 758 767 767 766 769 771 773 776 780 782 784 785 788 792 794 796 798 800 802 804 806 808 810 811 812 812 814 816 818 820 820 820 820 820 821 821 821 821 821 822 822 822 822 822 822 822 822 822 822 821 820 820 819 819 819 818 817 816 815 814 813 811
714 723 723 722 723 723 722 724 722 717 720 726 726 724 723 723 723 725 730 735 740 747 753 757 761 763 763 763 764 767 769 773 777 780 783 785 788 791 794 796 798 800 802 805 806 808 810 811 812 813 814 817 819 821 821 821 821 821 822 822 822 823 823 823 823 823 823 823 823 823 823 823 823 823 822 822 821 821 820 819 818 817 816 815 814 812
709 720 724 723 726 728 727 726 722 721 731 738 736 730 727 727 725 721 725 733 734 735 741 752 760 760 758 759 759 761 763 767 774 779 781 784 787 791 794 796 799 802 804 807 808 808 810 811 812 814 815 817 820 821 821 821 821 822 822 823 824 824 824 824 825 825 825 825 825 825 825 825 825 825 825 824 823 822 822 821 820 819 818 816 815 814
706 717 722 724 729 732 732 730 724 724 733 740 743 741 735 733 729 724 731 739 735 734 740 750 760 762 757 757 758 761 765 769 775 780 782 786 789 792 795 797 800 803 804 806 807 808 809 810 812 814 816 818 820 822 822 821 822 823 823 824 825 825 826 826 826 827 827 827 828 828 828 828 827 827 826 825 824 824 823 823 822 821 819 818 817 816
707 720 723 721 730 736 734 734 731 726 730 738 746 747 738 734 735 734 740 743 739 744 752 756 763 766 761 759 762 765 768 773 777 781 784 787 789 791 795 798 800 802 804 804 805 807 808 810 812 815 816 818 821 822 822 821 822 823 824 825 826 826 827 828 828 829 829 829 830 830 830 830 829 828 827 827 826 826 825 824 823 822 821 820 819 818
705 723 726 720 732 740 734 738 740 730 729 736 743 747 743 737 738 743 747 746 740 747 760 764 764 764 761 761 765 768 771 774 778 781 784 787 789 791 794 798 799 800 802 804 805 807 808 810 813 815 817 819 821 822 822 822 822 824 825 826 827 828 829 829 830 831 831 831 832 832 832 832 831 830 829 829 828 828 827 826 825 824 823 822 821 820
707 719 726 724 735 741 735 739 743 732 730 738 742 749 753 749 747 749 752 750 744 745 756 756 751 753 758 761 765 770 773 774 776 778 782 786 789 790 792 794 796 799 801 804 805 807 808 810 812 815 817 819 821 822 822 822 823 825 826 827 828 829 830 831 832 833 833 833 833 833 834 833 832 832 831 831 831 830 829 828 827 826 825 824 824 822
711 714 725 729 732 739 739 740 741 737 738 745 749 752 754 753 752 749 748 749 746 744 748 746 744 751 757 758 760 764 766 768 772 775 778 781 785 790 792 794 796 798 801 803 805 807 809 811 813 816 818 820 821 822 823 824 825 826 828 828 829 830 831 833 833 834 834 834 835 835 836 835 834 834 834 834 833 832 831 830 829 829 828 827 826 824
712 716 729 735 733 738 743 740 740 743 746 749 752 753 753 753 754 752 751 751 748 747 748 747 749 752 754 756 760 763 764 767 770 775 778 780 782 787 791 794 796 798 801 803 806 807 809 811 814 817 819 821 822 823 824 824 826 828 829 830 831 832 833 834 835 835 836 836 837 837 837 836 836 836 836 836 835 834 833 832 832 831 830 829 828 827
709 717 729 740 742 742 743 741 742 748 753 753 752 751 751 753 753 749 748 749 749 748 748 749 752 755 755 759 764 767 770 773 775 778 780 782 783 785 788 792 796 798 801 803 805 807 809 811 814 817 819 821 822 823 824 825 827 828 830 831 832 834 835 836 836 837 837 838 839 839 839 838 838 838 838 838 836 836 835 835 834 834 833 832 831 830
708 713 720 735 747 746 743 747 749 750 752 752 749 747 746 747 746 742 742 747 750 749 748 750 754 757 758 762 766 769 773 778 783 786 784 784 785 786 789 793 795 798 801 803 804 807 809 811 814 816 819 821 823 823 824 826 828 829 831 833 835 836 837 837 838 839 839 840 840 840 840 840 840 840 840 839 838 838 838 837 837 837 836 834 833 833
709 710 711 723 744 749 744 746 751 749 744 743 743 742 741 742 742 740 740 745 749 748 747 749 754 757 759 763 767 771 775 781 787 788 786 786 787 788 792 796 797 799 802 804 805 808 810 812 814 817 819 821 823 825 825 827 828 830 832 835 837 838 839 839 840 841 841 841 842 842 842 842 842 842 841 841 840 840 840 840 839 839 838 837 836 836
712 717 716 720 739 747 738 738 746 745 738 738 740 741 743 743 741 741 741 742 745 746 745 746 751 755 756 758 762 767 772 778 784 785 785 786 787 789 793 796 798 800 802 804 806 809 811 813 815 818 820 821 824 826 827 828 829 831 835 837 839 840 840 841 842 842 843 843 843 844 844 844 844 843 843 843 843 842 842 842 842 842 841 840 840 839
713 718 721 723 734 741 736 739 747 743 737 741 742 740 743 741 739 743 744 739 737 741 741 742 746 750 754 756 758 760 763 768 773 780 784 786 788 790 792 795 798 801 803 806 808 810 812 814 815 819 821 823 825 828 829 830 831 834 837 839 840 841 842 843 844 844 844 844 844 845 845 845 846 845 845 845 845 845 844 844 844 844 843 843 843 842
723 725 731 731 734 738 737 741 747 741 736 740 741 737 739 740 741 744 740 731 732 737 738 738 741 746 751 753 752 757 762 765 769 778 784 786 790 793 795 796 799 801 804 807 809 811 814 815 817 819 822 824 827 829 830 831 833 836 838 840 842 843 844 844 845 845 845 845 846 846 847 847 847 847 847 847 847 847 847 847 847 846 846 846 845 845
728 732 738 737 737 742 740 739 744 742 734 736 739 737 738 739 739 738 733 730 733 736 736 738 741 744 750 753 753 758 765 768 773 780 785 787 791 795 798 799 801 804 807 809 811 812 814 817 819 821 824 827 828 830 832 833 835 837 840 841 843 844 845 845 846 846 846 847 847 848 848 849 849 849 849 849 849 848 849 849 849 849 849 848 848 847
726 727 732 736 741 747 746 742 743 739 732 733 736 736 737 736 734 733 734 735 735 735 738 741 742 744 750 756 760 761 764 768 775 782 786 788 791 796 799 801 803 807 809 811 813 814 814 818 821 823 826 829 830 832 834 834 836 839 841 842 844 845 846 846 847 847 848 848 849 850 850 851 851 851 851 851 851 850 851 851 851 851 851 851 850 849
728 727 729 733 737 739 737 737 737 735 734 735 733 732 734 734 733 733 735 735 736 738 741 744 746 748 752 758 762 762 763 768 776 781 786 790 793 796 800 802 804 808 810 811 814 815 815 819 823 825 828 831 832 834 836 835 837 840 842 844 845 846 846 847 848 848 849 850 851 851 852 852 852 853 853 853 853 853 853 853 854 853 853 853 852 852
730 732 729 731 738 739 735 735 737 739 741 740 736 735 736 736 736 736 734 734 737 739 741 745 750 753 755 759 763 764 764 768 774 780 785 790 794 797 800 803 805 808 810 812 814 816 817 820 823 826 829 832 834 836 837 837 838 840 843 845 846 846 847 848 849 849 850 851 852 853 853 854 854 854 855 855 855 855 855 856 856 855 856 855 855 854
736 738 733 732 739 743 740 739 742 742 742 741 739 739 738 737 736 736 735 737 739 739 742 747 751 755 757 759 762 766 768 769 774 780 785 789 794 797 800 804 806 807 810 813 815 817 819 821 824 827 830 833 836 837 839 840 840 841 843 846 847 848 848 849 850 851 852 853 854 855 855 855 856 856 857 857 857 857 857 858 857 857 858 857 857 857
735 736 735 735 737 737 736 740 745 744 744 743 741 740 739 738 737 737 737 739 741 742 745 748 751 755 758 759 761 766 770 771 775 782 787 790 794 797 800 803 806 808 810 813 816 818 820 822 825 828 830 834 837 838 840 842 842 843 845 847 848 849 850 851 852 853 854 855 856 857 857 857 857 858 858 859 859 859 860 860 860 860 860 860 860 859
734 732 735 738 739 737 737 743 747 745 745 745 742 740 741 740 740 740 740 741 743 745 748 751 753 756 759 760 762 765 770 773 776 781 787 791 794 797 800 803 806 809 812 814 816 818 820 823 826 829 831 834 837 839 841 842 844 845 846 848 850 851 851 853 854 854 856 858 858 859 859 859 859 859 860 860 861 861 862 862 862 862 862 862 862 862
735 734 736 739 742 743 744 746 745 742 743 745 745 744 744 743 742 743 743 744 745 747 750 754 756 757 758 761 762 764 769 775 778 781 786 791 795 798 801 804 807 810 813 815 817 819 821 824 826 829 832 835 837 839 841 843 845 847 848 850 851 852 853 854 856 857 858 860 860 861 862 862 861 861 861 862 863 863 864 865 865 864 864 865 865 864
737 736 738 741 743 742 741 742 740 737 739 745 747 746 746 745 744 744 746 747 749 749 751 755 759 761 761 762 762 765 770 776 780 783 787 791 795 799 802 805 808 811 813 816 819 821 823 825 827 830 833 835 838 839 841 844 846 848 850 851 853 853 854 855 857 859 860 862 863 863 863 863 863 863 864 864 864 864 865 866 867 867 867 867 867 867
739 737 736 736 738 737 735 738 740 738 740 746 747 747 747 747 745 746 749 751 751 752 752 755 759 764 767 768 767 767 770 776 781 785 788 792 795 798 801 805 808 811 814 817 819 822 825 827 829 831 833 836 838 840 842 845 847 849 851 853 854 854 855 856 858 860 862 863 864 864 865 865 865 865 866 866 866 866 866 867 869 869 870 870 870 869